User: anonymous   Login
Location: Unspecified
(0.0000°N, 0.0000°E)
Time: 10:55:26
(UTC+00:00)
Language:

FORTE - Orbit

View from above orbital plane
View from above orbital plane
View from above satellite
View from above satellite

Ground track
Ground track

The orbit data is extracted from the following two-line orbital elements,

1 24920U 97047A   17269.20412918  .00000031  00000-0  37083-4 0  9995
2 24920  69.9562 356.1520 0025565 291.4067  68.4327 14.26256509 44514
Epoch (UTC): 26 September 2017 04:53:56
Eccentricity: 0.0025565
inclination: 69.9562°
perigee height: 786 km
apogee height: 822 km
right ascension of ascending node: 356.1520°
argument of perigee: 291.4067°
revolutions per day: 14.26256509
mean anomaly at epoch: 68.4327°
orbit number at epoch: 4451

The dashed part of the orbit path shows where the satellite is in the earth's shadow,  

DLR